Valparaiso, IN

8:27 PM CDT on July 23, 2017 (GMT -0500)
Porter County Municipal

Weather History for KVPZ - October, 2011

Change the Weather History Date:

Thursday, October 13, 2011

  Actual Average Record
Temperature  
Mean Temperature 58 °F 53 °F  
Max Temperature 63 °F 64 °F 83 °F (2008)
Min Temperature 52 °F 43 °F 31 °F (2006)
Degree Days  
Heating Degree Days 8 12  
Month to date heating degree days 136  
Since 1 July heating degree days 266  
Cooling Degree Days 0 0  
Month to date cooling degree days 11  
Year to date cooling degree days 713  
Growing Degree Days 8 (Base 50)    
Moisture  
Dew Point 56 °F    
Average Humidity 95    
Maximum Humidity 100    
Minimum Humidity 83    
Precipitation  
Precipitation 0.73 in 0.11 in 1.93 in (2001)
Month to date precipitation 1.33  
Year to date precipitation 30.08  
Sea Level Pressure  
Sea Level Pressure 29.54 in    
Wind  
Wind Speed 4 mph (South)    
Max Wind Speed 12 mph    
Max Gust Speed 26 mph    
Visibility 5 miles    
Events Fog , Rain    
T = Trace of Precipitation, MM = Missing Value Source: NWS Daily Summary

Daily Weather History Graph

Daily Weather History Graph

Search for Another Location

Airport or City:

Trip Planner

Search our weather history database for the weather conditions in past years. The results will help you decide how hot, cold, wet, or windy it might be!

Date:

Astronomy

Oct. 13, 2011 Rise Set
Actual Time 6:57 AM CDT 6:10 PM CDT
Civil Twilight 6:29 AM CDT 6:38 PM CDT
Nautical Twilight 5:57 AM CDT 7:10 PM CDT
Astronomical Twilight 5:25 AM CDT 7:42 PM CDT
Moon 6:43 PM CDT (10/13) 8:30 AM CDT (10/13)
Length of Visible Light 12h 08m
Length of Day
11h 13m
Full, 98% of the Moon is Illuminated
Oct 13
Full
Oct 19
Last Quarter
Oct 26
New
Nov 2
First Quarter
Nov 10
Full

Hourly Weather History & Observations

Time (CDT) Temp. Dew Point Humidity Pressure Visibility Wind Dir Wind Speed Gust Speed Precip Events Conditions
12:53 AM 55.0 °F 50.0 °F 83% 29.67 in 10.0 mi ESE 4.6 mph - N/A   Clear
1:53 AM 52.0 °F 48.9 °F 89% 29.66 in 10.0 mi East 3.5 mph - N/A   Mostly Cloudy
2:53 AM 52.0 °F 51.1 °F 97% 29.64 in 9.0 mi East 3.5 mph - N/A   Overcast
3:53 AM 55.0 °F 52.0 °F 89% 29.62 in 9.0 mi Calm Calm - N/A   Overcast
4:09 AM 55.4 °F 53.6 °F 94% 29.63 in 9.0 mi Calm Calm - N/A   Overcast
4:45 AM 55.4 °F 53.6 °F 94% 29.62 in 3.0 mi SE 4.6 mph - 0.04 in Rain Rain
4:53 AM 55.0 °F 54.0 °F 96% 29.61 in 4.0 mi SE 3.5 mph - 0.05 in Rain Light Rain
5:53 AM 55.9 °F 55.0 °F 97% 29.61 in 5.0 mi SSE 4.6 mph - 0.00 in   Overcast
6:01 AM 57.2 °F 55.4 °F 94% 29.61 in 4.0 mi SE 4.6 mph - N/A   Overcast
6:35 AM 55.4 °F 55.4 °F 100% 29.60 in 3.0 mi East 3.5 mph - 0.01 in   Overcast
6:45 AM 55.4 °F 55.4 °F 100% 29.60 in 2.5 mi East 3.5 mph - 0.01 in   Overcast
6:53 AM 55.9 °F 55.0 °F 97% 29.60 in 2.5 mi Calm Calm - 0.01 in   Overcast
7:05 AM 57.2 °F 55.4 °F 94% 29.60 in 3.0 mi ESE 3.5 mph - N/A   Overcast
7:35 AM 55.4 °F 55.4 °F 100% 29.59 in 2.0 mi ESE 3.5 mph - N/A   Overcast
7:53 AM 55.9 °F 55.0 °F 97% 29.59 in 2.0 mi SE 3.5 mph - 0.00 in Rain Light Rain
8:29 AM 57.2 °F 55.4 °F 94% 29.59 in 1.8 mi ESE 4.6 mph - 0.00 in   Overcast
8:50 AM 57.2 °F 57.2 °F 100% 29.58 in 2.0 mi SE 4.6 mph - 0.00 in   Overcast
9:23 AM 57.2 °F 57.2 °F 100% 29.58 in 1.8 mi SE 4.6 mph - N/A   Overcast
9:53 AM 59.0 °F 57.9 °F 96% 29.57 in 1.8 mi SE 4.6 mph - N/A   Overcast
10:06 AM 59.0 °F 59.0 °F 100% 29.58 in 2.0 mi SSE 5.8 mph - N/A   Overcast
10:53 AM 59.0 °F 57.9 °F 96% 29.57 in 2.0 mi South 5.8 mph - N/A   Overcast
11:53 AM 61.0 °F 59.0 °F 93% 29.56 in 3.0 mi South 3.5 mph - N/A   Overcast
12:11 PM 60.8 °F 59.0 °F 94% 29.55 in 3.0 mi South 5.8 mph - 0.00 in   Overcast
12:53 PM 62.1 °F 59.0 °F 90% 29.53 in 5.0 mi Calm Calm - 0.00 in   Overcast
1:02 PM 62.6 °F 59.0 °F 88% 29.53 in 6.0 mi SSE 3.5 mph - N/A   Overcast
1:22 PM 62.6 °F 59.0 °F 88% 29.51 in 7.0 mi Calm Calm - N/A   Overcast
1:53 PM 63.0 °F 59.0 °F 87% 29.50 in 7.0 mi ESE 5.8 mph - N/A   Overcast
2:53 PM 62.1 °F 59.0 °F 90% 29.48 in 4.0 mi ESE 6.9 mph - 0.01 in   Overcast
3:35 PM 60.8 °F 59.0 °F 94% 29.48 in 3.0 mi SSE 4.6 mph - 0.01 in Rain Light Rain
3:43 PM 60.8 °F 60.8 °F 100% 29.49 in 2.5 mi Variable 4.6 mph - 0.03 in Rain Light Rain
3:49 PM 60.8 °F 57.2 °F 88% 29.49 in 0.8 mi WSW 6.9 mph - 0.16 in Rain Heavy Rain
3:53 PM 59.0 °F 57.9 °F 96% 29.48 in 0.5 mi Calm Calm - 0.27 in Fog , Rain Heavy Rain
4:04 PM 59.0 °F 57.2 °F 94% 29.48 in 1.0 mi Calm Calm - 0.10 in Rain Rain
4:12 PM 59.0 °F 57.2 °F 94% 29.48 in 2.5 mi WNW 5.8 mph - 0.13 in Rain Rain
4:18 PM 57.2 °F 57.2 °F 100% 29.48 in 3.0 mi NW 8.1 mph 16.1 mph 0.14 in Rain Light Rain
4:26 PM 57.2 °F 57.2 °F 100% 29.48 in 5.0 mi NW 8.1 mph - 0.16 in Rain Light Rain
4:39 PM 57.2 °F 57.2 °F 100% 29.48 in 3.0 mi NW 5.8 mph - 0.20 in Rain Rain
4:53 PM 57.9 °F 57.0 °F 97% 29.48 in 5.0 mi WNW 5.8 mph - 0.23 in Rain Light Rain
5:06 PM 57.2 °F 57.2 °F 100% 29.48 in 5.0 mi Variable 5.8 mph - 0.02 in Rain Light Rain
5:13 PM 57.2 °F 57.2 °F 100% 29.48 in 4.0 mi NW 6.9 mph - 0.03 in Rain Light Rain
5:53 PM 57.9 °F 57.0 °F 97% 29.48 in 10.0 mi West 4.6 mph - 0.05 in   Overcast
6:05 PM 57.2 °F 57.2 °F 100% 29.48 in 10.0 mi West 4.6 mph - N/A   Overcast
6:51 PM 57.2 °F 57.2 °F 100% 29.50 in 4.0 mi West 10.4 mph 16.1 mph 0.01 in Rain Light Rain
7:08 PM 57.2 °F 53.6 °F 88% 29.50 in 5.0 mi NW 11.5 mph 26.5 mph 0.04 in Rain Light Rain
7:53 PM 57.0 °F 55.0 °F 93% 29.51 in 10.0 mi Variable 6.9 mph 19.6 mph 0.10 in   Overcast
8:53 PM 55.9 °F 55.0 °F 97% 29.52 in 10.0 mi West 4.6 mph - 0.01 in   Overcast
9:53 PM 55.9 °F 55.0 °F 97% 29.50 in 5.0 mi WSW 5.8 mph - N/A   Overcast
10:04 PM 55.4 °F 55.4 °F 100% 29.51 in 6.0 mi SW 6.9 mph - N/A   Overcast
10:21 PM 55.4 °F 55.4 °F 100% 29.51 in 5.0 mi WSW 4.6 mph - N/A   Overcast
10:48 PM 57.2 °F 55.4 °F 94% 29.51 in 10.0 mi West 6.9 mph - N/A   Overcast
10:53 PM 55.9 °F 55.0 °F 97% 29.51 in 10.0 mi West 8.1 mph - N/A   Overcast
11:34 PM 55.4 °F 51.8 °F 88% 29.52 in 10.0 mi NW 5.8 mph - N/A   Mostly Cloudy
11:53 PM 55.0 °F 51.1 °F 86% 29.52 in 10.0 mi WNW 6.9 mph - N/A   Scattered Clouds